Regional Weather Roundup
Issued by NWS

Home | Current Version | Previous Version | Text Only | Print | Product List | Glossary On
Versions: 1 2 3 4 5 6 7 8 9 10 11 12 13 14 15 16 17 18 19 20 21 22 23 24 25 26 27 28 29 30 31 32 33 34 35 36 37 38 39 40 41 42 43 44 45 46 47 48 49 50
000
ASUS44 KLIX 191411
RWRLA
LOUISIANA WEATHER ROUNDUP
NATIONAL WEATHER SERVICE NEW ORLEANS LA
900 AM CDT SUN APR 19 2015

NOTE: "FAIR" INDICATES FEW OR NO CLOUDS BELOW 12,000 FEET WITH NO
      SIGNIFICANT WEATHER AND/OR OBSTRUCTIONS TO VISIBILITY.
      SKY/WX - SKY CONDITION AND SIGNIFICANT WEATHER.
      TMP - AIR TEMPERATURE.    DP   - DEWPOINT TEMPERATURE.
      RH  - RELATIVE HUMIDITY.  PRES - PRESSURE.
      HX  - HEAT INDEX.         WCI  - WIND CHILL INDEX.

*  THESE STATIONS ARE NOT NWS OR FAA STATIONS AND ARE NOT UNDER
   NWS QUALITY CONTROL.

LAZ040-048-061>063-065-066-069-191500-
SOUTHEAST LOUISIANA

CITY           SKY/WX    TMP DP  RH WIND       PRES   REMARKS
N.O. AUDUBON     N/A     70  70  99 MISG        N/A
N.O. INTL ARPT CLOUDY    72  67  84 SW9       29.78F
N.O. LAKEFRONT CLOUDY    74  68  81 SW9       29.78F
SLIDELL        CLOUDY    72  69  90 SW6       29.76F
BATON ROUGE    SUNNY     72  66  81 VRB5      29.78R
BOOTHVILLE     CLOUDY    73  72  96 W3        29.81S
BELLE CHASSE   CLOUDY    72  66  83 SW3       29.78F
BOGALUSA*        N/A     72  67  85 SW5       29.78F
GALLIANO*      CLOUDY    73  68  85 W6        29.81S
NEW ROADS*     FAIR      70  64  79 CALM      29.79R
GONZALES*      FAIR      71  71  99 S6        29.78R
HAMMOND*       PTSUNNY   72  66  83 SW6       29.79S
HOUMA*         PTSUNNY   72  68  88 S9        29.80F
PORT FOURCHON* SUNNY     73  68  83 NW13G20   29.85R

$$

LAZ041-044-053-054-191500-
SOUTHWEST LOUISIANA

CITY           SKY/WX    TMP DP  RH WIND       PRES   REMARKS
LAKE CHARLES   SUNNY     70  63  78 VRB5      29.80R
LAFAYETTE      SUNNY     70  63  78 W7        29.78R
PATTERSON      SUNNY     72  66  83 S7        29.81R
SALT POINT       N/A     73  68  84 VRB5      29.78R
NEW IBERIA     SUNNY     71  65  81 W6        29.79R
CHENAULT AIRPK SUNNY     66  63  88 CALM      29.81R

$$

LAZ027-028-191500-
CENTRAL LOUISIANA

CITY           SKY/WX    TMP DP  RH WIND       PRES   REMARKS
FORT POLK      PTSUNNY   61  60  97 SW8       29.80R
ALEXANDRIA INT SUNNY     64  61  90 W5        29.78R
ALEXANDRIA     PTSUNNY   64  61  90 W8        29.78F

$$

LAZ001-002-191500-
NORTHWEST LOUISIANA

CITY           SKY/WX    TMP DP  RH WIND       PRES   REMARKS
SHREVEPORT     CLOUDY    61  58  90 SW6       29.80S
BARKSDALE AFB  CLOUDY    60  60  99 SW8       29.80
DTN SHREVEPORT CLOUDY    60  58  92 SW10      29.80S

$$

LAZ014-016-191500-
NORTHEAST LOUISIANA

CITY           SKY/WX    TMP DP  RH WIND       PRES   REMARKS
MONROE         MOSUNNY   65  61  87 W13       29.78R
TALLULAH       MOSUNNY   67  62  84 W10G17    29.74R

$$



USA.gov is the U.S. government's official web portal to all federal, state and local government web resources and services.